www.pogodaiklimat.ru

Погода и климат >> Архив погоды >> Мексика >> Sombrerete


ПОГОДА в Sombrerete

  • Прогноз погоды в Sombrerete
  • Монитор погоды в Sombrerete
  • Климат города

АРХИВ ПОГОДЫ в Sombrerete

Время (UTC), дата Ветер
(напр.,м/с)
 
Видим.   Явления Облачность Т
(С)
Тd
(С)
f
(%)
Тe
(С)
Тes
(С)
Комфортность P
(гПа)
Po
(гПа)
Тmin
(С)
Tmax
(С)
R
(мм)
R24
(мм)
S
(см)
21 18.06 В 2 16 км 8/4 1020 м
[Cu med, cong As op]
+22.4 +11.0 48 +24 +29 комфорт 1003.4 768.2
00 19.06 штиль 0 16 км слабая морось 10/10 600 м
[Frnb]
+17.6 +13.4 76 +18 +18 1003.2 768.6 0.0
12 19.06 штиль 0 16 км в посл. час дождь 9/9 600 м
[Sc]
+12.6 +11.7 94 +12 +12 1009.6 769.3 1
15 19.06 штиль 0 16 км 1/1 1000 м
[Cu hum]
+18.2 +12.8 71 +18 +28 1010.6 769.8
18 19.06 С 1 16 км 8/8 1020 м
[Cu med, cong]
+21.8 +13.6 60 +25 +30 комфорт 1008.5 769.4 +12.0 +22.6
21 19.06 С 5 16 км осадки на расстоянии {дождь} 9/9 600 м
[Frnb]
+17.4 +12.6 73 +17 +18 1005.5 768.1 3
00 20.06 С 1 16 км 9/9 1000 м
[Sc]
+21.8 +12.4 55 +24 +24 комфорт 1003.4 767.7 +12.0 +24.7 3
12 20.06 штиль 0 16 км ясно +12.8 +11.6 92 +12 +12 1006.7 768.5 +24.7
15 20.06 штиль 0 16 км ясно +19.4 +13.8 70 +21 +31 комфорт 1008.9 769.4
18 20.06 С 3 16 км 1/1 1500 м
[Cu hum]
+23.7 +9.2 40 +25 +40 комфорт 1006.9 769.2 +11.8 +23.7
21 20.06 С 4 16 км 6/6 1500 м
[Cu med, cong]
+26.2 +8.4 32 +26 +31 жарко 1002.7 767.8
00 21.06 СВ 4 16 км 5/5 1000 м
[Cu hum]
+26.5 +8.6 32 +27 +28 жарко 998.6 766.8 +11.8 +27.4
12 21.06 штиль 0 16 км 1/1 600 м
[Cu hum]
+13.6 +11.3 86 +13 +13 1003.3 768.7 +13.0 +27.4
15 21.06 штиль 0 16 км 6/0 2000 м
[Ac lent Cs]
+19.6 +13.4 67 +21 +28 комфорт 1006.3 769.8
18 21.06 С 4 16 км 5/0 2000 м
[Ac lent]
+23.7 +10.0 42 +25 +33 комфорт 1005.6 769.4 +12.6 +23.7
21 21.06 В 3 16 км 9/9 1470 м
[Sc diur, vesp]
+23.4 +9.4 41 +25 +26 комфорт 1003.3 768.2
00 22.06 С 5 16 км 9/9 1000 м
[Sc diur, vesp]
+23.2 +5.8 32 +24 +24 комфорт 999.9 767.0 +12.6 +25.3
12 22.06 штиль 0 14 км в посл. час дождь 9/9 300 м
[Frnb]
+14.0 +12.8 92 +14 +14 1005.8 768.5 1
15 22.06 ЮВ 1 15 км 10/10 480 м
[Frnb]
+15.6 +12.4 81 +16 +16 1008.6 769.7
18 22.06 штиль 0 16 км в посл. час морось 9/9 600 м
[St]
+21.9 +12.2 54 +24 +27 комфорт 1008.2 769.7 0.3
21 22.06 штиль 0 16 км 9/9 1380 м
[Sc diur, vesp]
+22.8 +11.7 50 +25 +28 комфорт 1005.6 768.7
00 23.06 В 2 16 км 6/6 1000 м
[Sc diur, vesp]
+22.2 +11.3 50 +24 +25 комфорт 1002.7 767.7 +13.0 +23.5
12 23.06 штиль 0 16 км 3/0 1500 м
[As op]
+13.3 +12.5 95 +13 +13 1006.5 769.9 +12.8 +23.5
15 23.06 штиль 0 16 км 6/6 800 м
[St]
+19.9 +12.6 63 +21 +26 комфорт 1009.2 771.0
18 23.06 ЮЗ 1 16 км 4/4 900 м
[Cu med, cong]
+25.4 +10.1 38 +26 +41 жарко 1008.0 770.6 +12.2 +25.4
21 23.06 штиль 0 16 км 6/6 1500 м
[Cu med, cong]
+27.6 +10.8 35 +28 +37 жарко 1002.4 768.2
00 24.06 Ю 2 16 км гроза без осадков 8/8 1000 м
[Cb calv]
+20.8 +12.4 59 +24 +24 комфорт 1000.1 768.1 +12.2 +28.3
12 24.06 штиль 0 16 км 8/0 2000 м
[Ac und Ci fib]
+14.2 +12.5 90 +14 +14 1007.7 769.2 +13.6 +28.3
15 24.06 штиль 0 16 км 3/3 870 м
[Cu hum]
+20.0 +13.5 66 +22 +29 комфорт 1009.0 770.2
18 24.06 штиль 0 16 км 8/8 1320 м
[Cu med, cong]
+24.2 +13.4 51 +26 +32 жарко 1006.6 769.6 +13.6 +25.2
12 25.06 штиль 0 16 км 3/0 1500 м
[As trans]
+12.3 +10.9 91 +12 +12 1008.5 769.4 +11.6 +28.0
15 25.06 штиль 0 16 км ясно +19.2 +13.3 69 +20 +31 1009.5 770.0
18 25.06 штиль 0 16 км 6/6 1380 м
[Cu med, cong]
+23.4 +12.0 49 +26 +37 жарко 1008.5 770.2 +11.2 +24.5

 

Местоположение метеостанции Sombrerete (Мексика): широта 23.63 долгота -103.60 высота над уровнем моря 2351 м.

В архиве по умолчанию представлена погода в Sombrerete за последнюю неделю. Архивные данные за месяц целиком и за предыдущие месяцы, начиная с января 2011 года, Вы можете получить, выбрав интересующий диапазон дат из раскрывающегося списка и нажав кнопку "Ввод!".


*Определитесь, кто Вы:
робот инопланетянин человек

Внимание! Время в таблицах - всемирное. Для получения местного времени необходимо прибавить поправку, которая в Sombrerete равна -6 ч.

Смотрите также архив погоды в соседних городах и на ближайших метеорологических станциях:

Погода в Durango (Мексика) (112 км)
Погода в Huejucar (Мексика) (141 км)
Погода в Zacatecas (Мексика) (147 км)
Погода в Colotlan (Мексика) (174 км)
Погода в Torreon (Мексика) (212 км)
Погода в Aguascalientes (Мексика) (237 км)
Погода в Tepic (Мексика) (265 км)
Погода в Tepehuanes (Мексика) (287 км)
Погода в Mazatlan (Мексика) (290 км)
Погода в Lagos De Moreno (Мексика) (307 км)

Пояснения к столбцам:

Ветер - указаны скорость ветра в м/с - средняя за 10 мин, порывы в срок и между сроками (в фигурных скобках) и направление, откуда дует ветер: С - северный, СВ - северо-восточный, В - восточный, ЮВ - юго-восточный, Ю - южный, ЮЗ - юго-западный, З - западный, СЗ - северо-западный.
Видимость - горизонтальная дальность видимости в метрах или километрах. При видимости от 1 до 10 км при отсутствии осадков обычно наблюдается дымка, при ухудшении видимости до 1 км и менее - туман. В сухую погоду видимость может ухудшаться дымом, пылью или мглою.
Явления - указаны атмосферные явления, наблюдавшиеся в срок или в последний час перед сроком; фигурными скобками обозначены явления, наблюдавшиеся между сроками (за 1-3 часа до срока); квадратными скобками обозначены град или гололедные отложения с указанием их диаметра в мм.
Облачность - указаны через наклонную черту общая и нижняя облачность в баллах и высота нижней границы облаков в метрах; квадратными скобками обозначены формы облаков: Ci - перистые, Cs - перисто-слоистые, Cc - перисто-кучевые, Ac - высококучевые, As - высокослоистые, Sc - слоисто-кучевые, Ns - слоисто-дождевые, Cu - кучевые, Cb - кучево-дождевые. Подробнее классификацию облаков см. в Атласе облаков (PDF).
T - Температура воздуха - температура, измеренная на высоте 2 м над землей.
Td - Температура точки росы - температура, при понижении до которой содержащийся в воздухе водяной пар достигнет насыщения.
f - Относительная влажность воздуха - влажноcть воздуха, измеренная на высоте 2 м над землей.
Te - Эффективная температура - температура, которую ощущает одетый по сезону человек в тени. Характеристика душности погоды. При расчете учитывается влияние влажности воздуха и скорости ветра на теплоощущения человека.
Tes - Эффективная температура на солнце - температура, которую ощущает человек, с поправкой на солнечный нагрев. Характеристика знойности погоды. Зависит от высоты солнца над горизонтом, облачности и скорости ветра. Ночью, в пасмурную погоду, а также при ветре 12 м/с и более поправка равна нулю.
P - Атмосферное давление - приведенное к уровню моря атмосферное давление.
Po - Атмосферное давление - измеренное на уровне метеостанции атмосферное давление.
Tmin - Минимальная температура - минимум температуры воздуха на высоте 2 м над землей.
Tmax - Максимальная температура - максимум температуры воздуха на высоте 2 м над землей.
R - Количество осадков - Количество выпавших осадков за период времени, мм. При наведении курсора мыши на число - период времени, за который выпало указанное количество осадков.
R24 - Количество осадков - Количество выпавших осадков за 24 часа, мм.
S - Снежный покров - Высота снежного покрова, см. При наведении курсора мыши на число - состояние снежного покрова и степень покрытия местности в баллах.